Theta_e
335 331 335 329 324 323 318 317 302 311 306 300 297 300 297 307 307 307 305 310 309 314 318 319 317 318 315 314 316 320 320 315 316 310 310 323 334 334 333 331 332 335 338 339 341 342 342 347 348 347 346 345 346 346 344 344 343 341 341 341 341 342 342 343 342 340 340 341 341 341 344 344 343 342 343 344 345 345 344 345 344 344 344 344 345 346 345 345 344 344 343 343 341 341 340 339 339
330 328 324 323 325 324 314 313 306 299 303 295 295 299 299 301 304 304 303 309 311 313 317 318 318 318 321 318 318 320 320 322 323 322 326 332 333 331 331 332 333 333 337 338 340 339 338 343 347 347 346 346 346 347 344 343 342 341 341 342 341 341 341 342 342 342 339 339 342 342 342 343 344 344 344 343 343 344 343 343 343 344 344 343 343 344 344 345 344 344 343 342 341 339 339 338 338
327 324 323 321 321 319 315 313 300 298 301 293 295 297 302 302 304 307 312 312 314 317 318 319 318 319 319 318 316 318 314 325 325 326 326 332 326 326 330 333 333 333 335 337 339 337 337 343 345 346 346 346 347 347 345 342 341 341 341 341 341 342 341 340 340 342 341 341 342 343 343 343 343 343 343 343 342 343 343 343 343 342 342 342 343 344 344 344 344 344 342 342 341 340 338 338 338
330 326 323 320 312 319 309 307 302 298 297 295 295 302 303 304 308 310 313 314 315 316 318 315 314 320 317 314 316 325 322 321 326 326 324 326 327 328 331 333 334 333 338 339 337 336 338 344 345 346 345 346 346 347 345 342 341 340 339 340 341 341 340 339 340 340 339 340 341 343 343 342 342 346 346 346 344 343 344 344 343 344 344 343 343 343 344 344 344 343 342 341 341 340 338 337 337
325 328 325 319 317 311 311 304 299 299 293 296 294 302 304 306 308 312 313 315 315 315 317 317 315 321 319 319 322 315 318 326 326 329 327 330 331 330 332 333 332 332 337 338 336 336 339 343 345 345 346 346 346 345 343 340 340 340 340 340 339 340 347 341 341 341 342 342 341 342 342 342 344 345 345 345 345 344 344 344 344 344 344 343 343 343 344 343 342 342 341 340 339 338 338 337 336
326 322 325 322 311 318 310 300 297 296 298 300 297 298 303 308 309 311 312 315 316 316 317 315 315 314 315 321 326 319 328 319 327 329 328 328 330 331 333 334 330 331 336 337 337 336 337 341 345 345 346 345 344 344 342 340 339 338 339 340 339 343 346 346 344 343 344 344 344 344 344 343 343 345 344 344 344 344 344 343 343 342 342 342 342 342 342 343 343 341 340 339 338 337 337 336 335
319 317 319 321 317 315 303 299 300 297 299 302 299 300 304 309 310 312 312 312 316 316 317 317 316 317 316 319 325 328 330 331 328 330 332 330 331 331 333 330 330 331 338 337 337 337 338 340 346 346 346 345 343 342 342 341 340 339 339 340 342 344 345 346 345 344 344 344 343 342 342 342 343 342 343 343 343 343 343 342 342 342 341 341 341 341 341 342 342 340 339 338 337 336 335 334 334
325 317 317 309 307 307 301 299 299 299 299 303 303 302 306 309 310 310 309 308 310 310 313 318 318 315 313 322 317 327 332 332 331 334 332 330 330 331 333 331 330 329 336 338 338 339 344 340 346 345 345 343 343 342 341 340 339 341 341 344 344 344 343 345 344 344 343 342 342 341 341 341 342 342 342 341 342 341 341 341 341 341 341 341 340 340 340 340 341 340 338 337 336 334 333 333 332
320 318 324 314 303 310 302 298 299 302 301 303 302 307 311 310 310 309 307 311 310 314 313 314 317 310 311 319 319 325 328 332 334 333 332 329 328 331 331 330 329 329 336 337 336 338 340 339 343 345 343 344 344 341 340 340 339 343 345 344 344 344 344 344 342 342 341 341 341 341 341 341 341 341 340 340 340 340 340 340 340 340 340 340 340 340 338 338 338 338 337 336 335 334 333 332 332
314 315 308 310 310 301 301 299 296 299 300 302 303 304 308 310 310 310 308 305 308 310 312 317 316 312 313 315 320 324 325 332 333 332 332 329 329 331 331 331 332 332 336 335 335 337 340 342 337 339 342 344 344 343 341 341 342 343 343 344 344 343 342 342 341 341 341 340 340 340 340 340 340 340 340 340 340 339 339 339 339 339 339 339 339 339 338 338 338 337 337 335 334 333 332 332 331
309 318 320 308 303 300 302 296 298 301 301 303 304 306 307 309 310 309 309 308 309 311 314 317 313 311 311 321 322 329 331 332 331 329 331 330 331 330 329 331 332 332 336 335 336 338 338 338 340 337 340 340 342 344 344 344 343 343 343 343 343 341 340 340 340 340 340 340 340 340 339 339 339 339 339 339 339 339 339 339 339 339 339 339 338 338 337 337 338 337 336 335 334 333 332 331 331
310 310 315 303 300 302 303 301 299 299 302 304 302 306 306 309 312 309 308 304 307 311 312 313 310 313 309 318 318 326 330 330 331 331 331 331 329 329 330 330 333 332 334 335 337 336 338 338 337 339 335 336 339 342 343 344 344 343 343 341 341 340 340 339 339 340 340 339 339 339 339 339 340 342 341 339 340 338 338 338 338 338 338 338 338 338 338 337 336 337 336 335 334 333 332 331 330
313 311 305 303 302 303 304 303 300 298 300 303 304 307 307 308 309 310 308 307 306 306 310 311 315 311 308 315 323 327 327 329 331 332 331 329 330 331 331 330 332 332 333 335 336 335 337 335 336 335 333 331 334 336 338 340 343 344 343 342 344 342 342 340 340 340 339 339 341 342 341 341 341 341 342 342 339 338 340 339 339 338 338 338 337 336 336 337 337 336 336 335 334 333 332 331 330
315 312 309 302 305 304 303 303 302 298 297 303 304 306 308 309 310 311 307 306 305 307 311 314 312 310 315 321 321 321 325 330 331 332 331 330 330 329 331 330 332 331 333 332 333 336 336 335 335 334 332 333 333 333 333 337 340 342 342 342 342 342 341 341 342 342 342 341 341 340 340 339 339 339 339 340 340 339 338 338 338 338 338 338 337 337 337 337 337 336 335 335 334 333 332 331 330
312 314 312 307 301 301 305 301 301 299 297 303 306 306 308 311 310 310 309 307 309 316 316 318 322 311 305 308 317 321 326 330 330 331 330 329 329 329 331 331 331 331 330 330 331 335 336 335 335 333 332 332 333 333 333 334 334 338 339 340 340 341 340 340 340 338 338 339 337 336 336 334 333 334 335 336 336 336 335 334 336 337 337 337 336 336 336 337 336 336 336 335 334 332 332 331 330
317 311 310 305 299 300 304 303 304 301 298 302 306 308 307 309 311 308 308 310 311 317 314 310 318 313 315 321 321 327 329 330 331 331 330 328 327 329 329 330 329 328 326 329 329 329 332 336 335 333 333 333 331 332 334 334 332 332 335 336 337 337 337 336 335 333 332 332 332 331 330 330 329 329 329 330 331 334 333 330 333 336 335 335 335 335 334 335 335 335 335 334 333 332 332 331 330
317 314 302 302 298 301 305 303 304 296 299 303 307 307 305 305 310 310 309 313 310 311 311 316 312 320 321 326 328 329 330 330 329 329 328 326 324 324 325 326 327 328 329 328 328 329 330 334 336 334 333 333 333 333 334 335 332 330 330 330 332 333 333 332 331 326 324 324 326 325 328 332 331 330 331 330 326 327 325 327 331 335 335 335 334 334 334 334 333 333 332 332 331 331 331 330 328
315 304 302 300 301 301 302 300 301 303 300 301 305 308 307 304 307 309 311 310 310 311 310 317 317 319 321 329 330 331 330 329 328 326 325 324 322 320 320 321 324 324 326 325 328 329 329 330 336 335 332 333 333 335 335 336 334 334 334 332 332 330 327 326 328 331 333 329 325 327 331 331 330 330 330 333 328 327 326 326 329 334 335 334 334 333 333 332 332 332 332 331 331 331 326 321 321
308 303 303 299 302 302 304 302 302 301 300 302 302 304 306 307 308 308 305 305 306 308 309 315 313 318 318 324 329 329 329 328 326 325 324 323 322 319 318 319 322 324 323 325 327 328 328 328 331 333 333 333 333 334 335 333 334 333 334 334 333 329 331 331 332 332 332 332 331 331 330 330 330 330 331 332 329 321 322 323 327 329 332 332 333 333 332 332 331 331 330 330 330 330 322 322 324
310 307 300 302 303 302 304 304 302 302 303 302 302 303 302 307 309 309 305 304 306 304 305 308 310 313 315 324 327 327 328 327 326 324 324 323 323 320 318 319 321 323 323 325 326 329 328 328 328 329 331 333 331 332 334 333 331 329 332 332 333 333 332 333 331 332 332 332 331 331 331 329 331 328 330 330 328 323 319 321 323 325 327 327 328 329 330 331 330 332 330 330 329 323 323 324 324
310 305 301 305 303 302 302 303 302 302 303 303 302 302 301 305 308 307 306 302 304 305 308 309 309 312 315 321 326 326 326 325 325 325 324 323 324 322 320 321 321 323 324 325 326 327 328 329 327 328 330 332 331 331 331 330 329 328 329 330 333 330 331 330 330 331 331 332 331 330 328 330 331 329 328 328 328 327 324 323 321 324 324 325 322 325 324 325 324 322 323 322 321 324 323 322 322
311 306 309 308 302 302 301 302 301 301 301 302 302 301 302 304 304 304 304 302 301 305 308 309 310 313 317 318 326 326 325 324 324 324 323 323 323 323 321 322 323 323 324 324 325 326 327 329 328 328 328 329 331 329 328 327 328 326 327 328 330 328 331 329 328 330 330 332 330 330 328 328 328 329 328 325 326 326 326 326 325 326 325 326 322 325 326 325 323 325 324 323 323 322 322 322 322
304 307 310 305 303 300 302 301 300 299 302 302 301 302 302 302 301 303 303 302 306 307 308 308 309 318 320 320 327 325 324 324 324 324 324 324 324 324 323 322 322 322 323 324 325 325 327 328 329 329 328 328 329 328 328 327 326 326 326 327 327 325 328 327 325 328 329 331 330 329 327 326 325 325 326 324 324 326 326 326 326 326 326 326 324 322 323 323 322 323 322 322 322 321 323 321 321
309 306 309 307 305 302 303 301 302 300 301 301 301 303 300 301 298 304 302 304 306 308 308 308 309 315 322 320 327 325 324 325 324 325 326 325 325 325 325 323 323 323 323 324 325 325 325 327 329 328 328 328 327 328 327 327 326 326 327 325 326 325 325 325 325 327 328 330 330 329 325 326 325 324 325 325 325 324 325 325 326 324 324 325 324 324 324 322 322 323 322 322 322 321 320 321 320
307 307 308 304 305 301 301 302 301 301 302 303 303 300 300 301 301 301 301 303 305 305 308 308 310 311 321 320 324 325 324 325 325 326 327 327 327 327 327 325 324 324 323 324 325 325 325 327 329 328 328 328 328 328 326 325 326 326 325 325 325 326 327 325 326 327 327 327 329 328 325 325 326 326 325 325 323 323 323 325 323 323 323 324 324 321 322 322 321 321 322 321 322 323 319 320 319
310 311 311 302 303 302 301 303 302 300 305 303 302 300 302 302 301 300 301 303 304 305 308 308 309 312 319 320 322 324 324 325 326 326 326 327 328 327 326 326 325 324 325 325 325 324 326 327 328 328 328 328 328 328 326 325 325 325 325 325 326 324 326 328 327 326 326 326 326 327 326 326 326 324 325 325 324 324 323 322 322 323 323 322 323 322 321 320 320 319 320 321 320 318 318 319 318
312 312 311 303 304 303 303 302 302 302 305 305 302 302 303 301 302 296 305 305 305 305 308 308 308 308 315 318 321 322 323 325 326 327 327 327 327 327 327 327 326 326 326 326 326 325 325 325 327 328 328 326 327 327 326 326 326 325 325 325 325 325 326 327 327 327 326 327 327 327 326 326 326 325 325 325 323 323 324 323 322 323 322 322 323 322 321 320 319 319 320 319 318 318 318 320 319
313 310 306 305 306 304 304 303 302 303 303 305 303 301 303 303 301 299 303 305 306 306 306 307 308 307 310 315 318 320 322 325 327 327 326 326 326 327 327 327 327 327 326 326 327 327 327 326 327 327 327 327 327 327 326 326 325 325 325 326 325 325 325 326 327 327 325 326 326 327 327 327 325 325 325 326 325 323 323 323 323 322 322 322 323 322 321 319 319 319 321 320 321 320 319 321 321
310 309 303 306 306 303 304 303 303 303 302 303 305 303 302 303 299 301 304 305 305 306 305 307 308 308 309 312 314 319 319 322 326 326 326 328 328 329 328 329 328 327 328 328 328 327 327 327 326 326 327 327 327 326 326 326 326 326 326 325 326 327 326 326 326 327 327 326 326 328 328 327 326 325 324 325 323 324 323 323 323 323 323 323 324 322 321 321 321 321 320 322 320 320 319 320 322
313 309 306 306 306 303 307 307 306 303 305 303 307 296 301 306 308 307 305 306 305 304 303 305 308 308 308 310 312 316 319 320 323 326 327 328 328 328 327 328 329 328 328 328 328 328 328 328 328 327 327 327 326 327 326 326 326 326 325 326 326 327 326 324 325 326 326 325 326 327 328 327 325 324 325 325 324 323 324 324 324 323 324 324 324 324 322 321 321 320 320 321 320 319 318 320 319
304 307 308 302 301 301 310 308 307 303 304 304 309 297 301 306 308 307 306 306 305 302 302 302 307 308 307 309 311 314 319 320 322 326 327 328 329 329 328 328 328 329 328 328 328 329 329 329 328 328 326 327 325 326 326 326 326 326 326 326 327 327 326 325 325 326 325 325 326 326 328 326 325 324 324 325 325 324 323 324 324 323 325 325 323 323 323 323 323 322 320 321 321 320 321 321 319
306 302 297 302 300 302 308 310 308 304 302 307 305 297 300 305 309 309 305 304 304 302 302 302 305 307 308 309 311 313 317 320 322 325 327 328 328 328 328 327 328 329 328 328 328 329 329 329 328 328 326 326 326 326 326 327 327 327 327 325 327 327 326 326 325 325 326 326 325 327 328 326 324 325 324 324 325 324 323 324 324 325 325 325 324 323 324 323 322 323 322 322 318 318 319 319 317
304 301 298 298 301 301 301 308 310 310 302 305 305 299 303 302 308 310 308 303 302 302 302 302 303 305 308 309 311 313 315 317 320 322 325 327 328 328 328 328 328 328 329 328 328 328 328 329 327 328 326 326 327 326 325 326 327 327 327 327 328 328 327 326 325 325 325 326 325 326 328 327 325 325 324 325 325 325 324 324 324 325 326 325 323 322 323 323 321 322 321 322 320 317 317 317 317
299 302 298 301 300 302 299 303 308 307 302 300 305 301 302 304 302 307 302 303 303 302 303 304 305 302 305 308 311 313 314 315 318 320 322 326 327 328 329 326 328 329 329 329 329 329 328 329 329 328 328 327 327 327 326 325 327 327 327 327 325 327 327 327 326 326 326 326 326 325 328 327 326 326 325 325 325 326 325 325 324 326 326 326 324 323 323 324 323 322 320 321 322 319 317 316 317
296 297 296 297 301 303 301 296 301 302 302 301 301 300 301 304 306 303 300 302 302 301 301 301 302 302 301 307 308 310 311 312 315 319 322 323 326 327 327 328 328 328 329 329 329 329 329 329 328 327 328 328 328 327 326 326 326 327 327 327 326 326 327 327 327 327 327 326 327 326 327 328 326 327 326 326 326 325 326 325 325 325 326 325 325 324 323 323 323 322 321 319 320 321 319 318 317
300 300 299 299 297 299 301 302 302 303 299 300 300 297 298 300 302 304 305 303 301 301 300 300 300 300 301 303 307 307 309 310 314 318 323 323 324 326 327 328 328 329 329 329 328 328 328 328 328 328 328 329 329 329 328 326 326 325 324 325 325 324 326 326 327 327 327 327 327 328 327 328 327 326 327 326 326 325 324 324 325 325 325 326 324 323 322 322 322 321 320 319 318 317 318 318 316
303 302 301 300 299 300 304 297 300 302 298 297 299 300 300 301 302 303 304 304 304 305 304 303 302 301 301 300 303 307 308 309 313 317 321 323 324 326 327 327 327 328 328 328 328 328 328 328 327 327 328 329 328 328 327 326 325 325 325 325 324 325 324 325 326 326 327 327 327 328 328 328 328 327 327 326 326 323 324 324 325 325 325 325 324 323 323 322 323 322 320 320 318 317 317 319 319
302 301 300 298 300 297 303 298 298 301 299 297 299 299 301 302 304 305 305 304 302 301 302 303 304 304 303 302 302 303 307 310 313 314 318 322 323 325 327 326 324 326 327 328 327 327 328 328 328 328 328 328 328 328 327 327 327 326 325 325 325 326 325 324 324 326 327 328 328 328 328 328 328 327 326 327 325 325 324 324 324 325 325 324 324 324 323 320 322 321 321 318 319 318 317 318 320
302 300 299 297 298 302 302 297 299 300 300 296 299 299 301 303 305 306 306 305 305 305 303 302 302 303 305 304 303 303 303 307 310 313 316 320 323 325 325 325 326 327 327 327 327 327 327 328 329 328 328 328 328 327 327 327 328 328 327 326 326 325 328 327 327 326 327 328 328 329 329 329 329 328 327 327 327 326 324 324 325 326 326 325 323 323 322 322 322 321 320 320 316 319 319 318 319
300 299 296 295 300 297 294 296 299 298 298 296 297 295 297 301 303 303 305 304 304 306 307 306 303 302 304 306 305 304 304 304 309 313 315 318 321 323 323 324 325 326 325 326 327 327 328 327 328 328 328 328 328 328 325 328 329 329 329 328 328 328 326 327 328 327 327 327 327 329 329 330 330 329 328 327 327 327 326 325 325 326 326 326 325 324 323 322 322 321 321 321 320 317 317 317 319
301 301 298 297 298 299 298 292 296 297 297 297 294 293 294 297 297 299 303 306 306 306 306 307 307 304 304 305 306 305 305 305 306 311 312 314 318 321 322 324 325 325 325 326 326 327 328 327 328 328 328 328 329 327 326 326 327 327 328 328 328 328 327 327 326 326 327 326 327 328 329 329 330 330 330 329 327 328 328 326 326 326 327 327 326 325 324 324 323 323 323 321 321 319 315 316 317
298 301 301 300 300 298 300 300 298 295 294 295 295 286 286 295 297 298 300 302 303 305 304 305 307 304 302 302 304 305 306 305 306 308 310 311 315 320 322 322 323 324 324 326 326 327 327 327 328 328 328 327 327 327 327 326 325 326 326 326 324 325 324 325 325 325 326 326 326 328 328 330 330 330 330 330 328 327 328 328 327 326 327 327 326 326 325 324 324 323 324 323 322 321 319 316 313
295 297 303 302 301 300 301 299 295 287 284 293 295 287 283 293 294 297 299 299 299 301 302 303 304 304 303 303 304 304 305 305 304 305 307 308 311 316 320 321 322 323 324 325 325 326 326 326 327 327 327 327 327 327 327 325 325 325 326 326 325 325 324 325 327 327 328 328 328 327 328 329 330 330 331 331 330 328 329 328 328 327 327 327 326 326 325 324 324 324 324 324 323 321 320 316 314
294 303 302 302 300 300 299 298 296 292 298 297 295 295 284 287 294 299 300 299 300 301 302 300 301 302 303 303 304 304 305 305 305 305 305 306 307 312 317 320 321 322 323 324 324 325 325 325 325 326 327 325 327 327 327 326 325 325 325 325 325 325 325 325 326 327 327 327 327 327 327 328 329 331 331 331 331 329 328 329 329 328 328 328 326 326 326 325 325 324 323 324 323 322 321 319 315
298 301 303 300 300 300 300 297 294 294 290 284 292 296 286 285 292 298 299 296 298 300 302 303 305 302 302 302 303 303 304 304 305 305 305 305 305 307 313 317 320 321 321 322 323 324 325 325 324 325 326 326 326 327 327 327 325 325 325 325 325 325 326 326 324 324 326 325 327 327 326 327 328 329 330 331 331 330 326 328 329 328 328 328 325 326 326 326 325 323 322 322 322 322 321 320 317
299 303 304 303 302 299 299 294 292 289 287 283 288 294 286 287 292 295 296 297 297 299 301 303 304 305 302 302 302 302 303 303 303 303 304 305 305 305 307 312 317 320 321 322 323 323 324 324 324 324 325 326 326 327 327 327 326 324 325 324 324 324 324 324 324 323 324 325 325 325 326 326 327 327 329 330 330 331 329 327 328 328 328 328 325 327 327 326 325 324 323 323 322 322 322 320 320
303 302 298 297 296 293 292 290 288 287 283 286 291 294 291 283 290 293 293 296 298 299 300 301 303 303 303 304 304 306 302 303 304 305 304 304 304 305 306 306 307 314 319 321 322 323 323 324 324 323 324 326 326 326 327 327 327 326 325 325 324 324 324 324 323 323 324 323 324 325 325 326 326 327 327 328 330 330 330 328 328 328 328 326 325 327 327 326 326 324 323 322 322 323 321 320 318
301 296 294 292 290 291 288 287 288 282 281 285 290 293 294 283 287 294 296 296 296 297 297 298 299 301 302 302 300 299 299 300 301 301 301 302 302 302 304 304 304 305 314 318 320 321 322 323 323 323 323 324 326 326 326 327 327 327 326 325 325 325 324 324 323 323 323 323 324 324 325 325 325 326 327 328 328 329 329 329 328 328 327 327 327 327 327 327 326 325 323 322 323 324 323 320 320
298 296 294 286 282 283 280 284 282 282 281 283 286 293 288 289 292 295 296 296 297 298 299 299 299 298 299 300 302 300 300 300 300 299 300 301 300 301 301 301 301 302 305 311 314 317 319 320 322 322 322 323 325 326 325 326 326 327 327 326 325 325 324 324 324 323 323 323 324 324 324 324 324 324 326 327 327 328 328 328 328 328 328 327 327 326 327 327 327 326 324 323 323 322 322 321 320
296 294 290 284 280 278 275 279 282 281 284 283 286 289 283 289 291 298 299 301 301 298 300 299 298 297 297 298 299 300 301 300 301 301 301 301 302 302 301 301 301 301 302 303 306 309 312 314 316 319 321 322 323 324 325 325 326 326 327 327 326 325 324 324 324 324 323 323 323 324 324 324 324 325 325 326 327 328 328 328 328 328 328 328 326 326 326 326 326 326 325 323 322 323 323 321 321
296 297 294 286 284 281 277 280 277 278 280 282 288 283 281 281 288 293 294 296 295 297 298 298 298 299 299 300 298 298 298 298 300 301 302 302 302 303 303 303 303 303 303 303 303 304 307 309 310 312 315 317 319 322 323 324 325 326 326 327 326 326 325 324 325 325 324 324 324 323 323 324 324 325 325 326 326 327 327 328 328 328 328 328 327 327 326 326 326 326 325 324 323 323 322 321 320
296 298 298 290 285 288 281 283 282 282 280 279 280 282 286 289 295 296 297 296 296 296 297 297 298 298 299 299 297 298 299 300 301 301 302 302 301 301 301 301 302 301 302 302 302 302 303 306 307 309 310 311 314 316 319 322 323 324 325 325 326 325 323 324 323 323 324 325 324 324 324 324 324 325 325 325 325 326 327 327 327 327 327 327 327 327 327 326 325 324 323 323 322 322 321 320 320
294 296 290 292 296 294 284 281 284 282 282 280 283 283 287 293 296 298 298 296 296 295 295 295 296 297 296 298 299 298 300 300 301 301 300 301 301 302 301 301 301 301 301 302 302 301 302 302 303 304 305 307 310 312 315 318 321 321 322 324 324 324 324 323 323 323 323 324 324 324 324 324 324 325 324 324 325 325 326 327 326 326 326 327 326 325 325 325 324 323 321 321 321 321 321 320 319
296 289 294 298 298 295 287 282 281 280 277 280 284 283 283 286 283 295 296 295 296 294 294 295 297 296 296 298 298 299 299 299 299 300 299 299 300 300 300 301 301 302 301 301 302 302 303 302 302 302 302 303 305 307 310 312 315 318 320 321 322 323 324 323 323 323 323 322 323 324 324 323 323 324 324 323 323 323 324 321 326 325 325 325 325 324 324 324 323 322 321 320 320 319 319 318 318
297 294 301 293 283 283 287 283 277 275 275 277 281 283 283 286 288 291 293 294 295 297 297 295 295 294 296 296 297 298 299 301 301 300 301 301 300 301 300 301 301 301 301 301 302 302 303 303 302 302 302 303 304 306 307 309 312 315 318 319 319 320 322 322 322 322 322 322 322 323 323 323 322 322 322 321 321 322 323 323 324 324 323 323 324 322 322 322 322 321 320 319 318 317 316 314 313
296 299 296 298 292 285 284 285 283 282 277 277 277 282 281 289 291 294 294 296 297 298 298 295 294 294 296 295 296 297 298 299 300 300 300 301 301 300 300 300 300 301 301 300 300 301 301 302 302 302 302 303 303 305 305 307 309 311 314 314 316 318 318 319 320 320 321 321 321 322 322 322 323 321 322 320 321 321 321 322 322 322 321 321 321 321 320 320 319 319 317 316 314 316 314 311 310
289 292 290 291 289 291 290 289 284 281 279 279 278 278 282 290 296 296 296 296 297 297 296 295 294 295 295 296 297 297 299 299 299 300 299 300 301 301 301 300 300 300 300 300 300 300 301 301 302 302 302 302 303 304 304 306 307 310 310 312 314 315 316 317 316 318 319 320 321 320 322 322 321 320 320 318 318 320 321 320 320 319 319 319 319 318 318 318 317 315 314 313 311 313 312 309 308
293 293 290 292 289 284 284 282 289 285 283 279 279 279 283 294 298 298 297 296 296 296 296 296 295 295 296 297 297 297 298 299 299 299 299 299 300 301 302 300 298 297 298 298 300 300 299 300 301 300 301 301 302 303 304 305 305 308 308 311 312 312 313 314 314 315 316 318 318 319 319 316 318 317 318 318 317 317 317 318 318 318 317 317 317 318 316 316 314 313 311 312 311 310 308 305 304
Wind_Speed
10 9 6 5 4 4 4 3 2 2 2 1 3 3 2 1 4 5 6 4 5 4 3 5 3 7 6 2 10 13 10 7 4 1 1 3 3 6 9 10 9 10 11 9 7 5 4 8 10 12 12 12 12 12 13 14 14 13 12 12 13 13 13 14 13 12 12 13 12 14 15 14 14 15 15 16 16 15 16 16 17 16 16 16 16 18 18 19 19 19 18 18 18 17 17 17 17
8 8 7 4 2 3 2 1 2 4 3 5 5 4 3 3 3 6 5 3 7 3 2 4 6 4 0 5 3 7 13 11 9 7 6 5 6 8 8 8 10 11 11 9 8 7 5 6 10 10 11 11 13 12 14 13 12 12 13 13 12 13 12 13 13 12 11 12 14 14 14 15 14 14 14 15 15 16 15 16 16 15 15 15 16 17 17 18 19 19 18 18 17 17 16 16 16
7 8 7 5 2 3 4 1 3 4 1 5 4 3 4 4 3 5 10 10 8 5 3 5 4 1 2 4 9 8 5 11 11 9 6 5 10 6 8 7 8 10 11 8 8 7 5 6 9 11 12 12 13 11 10 14 13 12 13 12 12 13 12 11 13 13 13 12 13 13 14 14 13 14 13 14 14 15 16 15 14 14 15 15 15 16 17 17 18 17 17 17 17 16 16 15 15
6 7 5 3 3 1 2 2 3 4 4 6 3 2 2 4 10 9 8 7 5 4 2 3 1 1 6 10 6 12 8 7 8 8 6 6 7 7 8 8 8 7 9 8 7 7 6 8 10 12 13 14 14 12 11 12 14 13 12 12 13 12 11 12 11 12 13 12 13 14 13 13 14 16 14 14 14 15 16 15 14 14 14 14 15 15 16 17 17 17 17 16 16 16 15 15 14
5 4 5 3 2 2 2 3 3 2 4 4 4 2 2 6 9 9 5 5 4 3 2 3 1 2 2 3 5 2 5 8 8 6 4 5 12 6 9 7 5 7 11 9 9 8 7 11 10 11 14 14 14 12 12 13 12 13 12 12 11 12 12 10 12 13 12 12 12 13 13 13 15 15 14 15 15 14 15 15 15 14 14 15 15 15 16 17 17 16 16 16 15 15 15 14 14
8 5 5 2 2 0 1 2 4 4 3 4 4 3 1 8 9 8 6 5 3 3 5 1 3 4 2 6 4 3 2 4 7 8 8 7 10 10 8 5 6 6 9 9 10 7 7 9 10 11 13 14 14 13 12 12 12 11 10 11 11 12 12 13 13 13 12 12 14 12 12 12 13 14 15 16 14 15 15 15 14 14 14 15 15 15 16 17 17 16 16 15 15 15 15 14 14
3 4 2 2 3 1 2 4 1 6 5 4 3 3 3 8 9 8 7 5 2 2 2 1 3 3 6 2 7 5 7 4 6 7 9 9 9 9 8 7 5 8 11 9 9 7 7 7 11 11 10 10 12 12 11 11 12 11 10 11 12 11 12 12 13 12 13 12 13 12 11 13 14 14 14 14 14 15 14 14 14 14 14 14 14 15 15 16 16 16 15 15 15 15 14 14 13
3 0 2 2 3 2 3 3 2 4 2 4 3 4 3 9 6 5 5 4 4 2 2 4 1 2 4 6 5 1 6 10 13 15 12 10 8 8 6 6 6 7 11 11 9 7 8 8 9 8 9 11 12 11 11 10 10 11 10 12 12 11 11 12 12 12 13 13 12 12 11 12 13 12 12 12 13 13 14 14 14 13 14 14 14 14 15 15 16 15 15 15 15 14 14 14 13
3 2 1 2 3 2 3 3 3 4 4 3 4 3 5 6 5 5 4 5 5 4 4 2 2 2 2 8 8 3 2 8 12 11 10 10 7 6 7 7 5 7 10 11 9 7 6 7 8 7 8 9 11 12 10 9 9 12 11 12 12 12 13 12 12 11 12 12 12 12 11 11 11 11 11 12 12 12 13 13 13 13 13 13 14 14 14 15 14 14 14 14 14 14 13 13 13
3 2 2 2 2 4 4 1 3 3 5 4 4 3 2 2 4 3 5 5 4 3 3 2 2 1 3 10 8 4 2 8 10 10 8 8 6 5 8 7 6 10 11 10 9 7 6 8 8 8 7 7 9 11 11 9 10 10 10 11 12 12 12 13 12 12 11 12 12 11 11 11 11 11 11 12 11 11 12 12 12 13 13 13 13 14 14 13 14 14 14 14 13 13 13 13 12
2 2 1 2 3 4 3 3 4 2 6 4 5 4 2 0 2 4 3 6 4 4 3 3 1 1 1 6 5 2 5 8 9 10 8 6 4 5 7 7 6 7 11 10 8 8 7 4 8 8 8 8 9 10 10 9 10 10 10 11 10 10 11 11 11 12 11 11 11 10 10 10 10 11 10 11 11 11 12 11 12 12 12 13 13 13 13 13 13 13 13 13 13 12 12 12 12
1 2 1 2 5 3 2 1 1 6 4 6 3 3 1 1 1 2 5 5 2 7 4 4 1 0 2 5 2 4 7 5 9 9 7 5 3 5 7 5 4 7 8 10 10 8 7 6 4 7 9 9 9 10 8 7 8 10 9 10 10 10 11 11 11 11 11 10 10 10 10 10 10 9 8 9 9 10 11 10 11 11 11 12 12 12 12 11 11 11 12 11 11 12 11 11 11
0 3 3 3 3 3 3 2 1 3 3 5 3 2 2 2 2 1 3 4 2 3 5 4 3 1 1 3 3 6 8 6 9 10 8 4 3 4 6 6 6 5 7 10 10 9 8 6 6 4 6 11 10 10 9 9 7 7 7 6 6 10 9 12 11 10 10 11 11 11 11 10 10 10 11 10 10 10 9 10 10 11 12 11 11 11 11 11 11 10 10 10 10 10 11 10 10
1 1 1 2 6 2 3 2 1 1 3 2 3 2 2 2 2 4 3 3 3 1 3 5 0 1 4 6 4 5 6 7 11 11 7 6 3 3 6 5 6 4 4 6 8 9 8 7 7 7 6 6 6 8 9 9 8 8 7 8 8 9 10 10 10 11 11 11 10 9 9 10 10 10 9 10 10 10 10 9 9 11 11 11 11 10 10 10 10 10 9 9 9 9 9 9 9
2 2 0 2 4 5 0 3 1 1 1 2 1 1 2 3 4 2 7 4 5 2 2 3 2 0 1 2 5 7 8 8 11 10 6 7 6 3 6 6 7 4 3 3 7 9 9 8 8 7 6 6 7 5 4 6 9 9 8 8 9 10 10 10 10 10 9 10 10 10 8 9 9 10 10 9 9 9 9 7 8 9 10 10 10 9 9 9 9 9 9 8 8 8 7 8 7
1 1 1 1 3 2 1 4 2 1 2 2 1 1 3 3 2 2 2 3 2 2 0 1 1 1 3 7 6 12 13 10 9 9 6 7 5 4 4 5 7 5 3 2 6 5 6 9 7 7 6 6 6 7 6 5 8 10 9 8 9 10 11 10 10 10 9 9 9 9 9 7 7 7 10 8 9 8 8 6 7 7 8 9 9 9 8 8 8 7 7 7 7 7 6 5 5
2 1 0 0 3 3 1 1 3 2 3 2 2 2 3 2 1 1 3 1 2 3 1 2 2 0 5 5 11 14 11 11 9 9 6 5 5 5 4 4 5 4 3 3 5 3 4 8 9 7 6 9 7 8 7 6 6 9 8 9 10 10 10 10 10 10 9 7 7 8 8 5 4 4 5 5 7 5 7 7 6 7 7 8 8 8 8 7 7 6 6 6 6 5 5 5 6
0 1 1 2 2 4 7 5 3 2 4 3 3 1 1 4 2 1 0 2 2 4 2 4 4 6 5 6 10 11 10 11 10 10 7 6 5 5 5 4 5 4 4 3 5 4 4 3 9 6 6 8 6 7 7 6 6 7 6 6 5 7 8 9 8 6 6 4 6 6 4 5 5 4 4 6 5 5 6 7 8 8 8 7 7 7 6 6 5 5 4 4 4 4 6 2 1
2 2 2 3 3 1 2 3 6 3 4 5 3 3 3 3 3 2 2 3 4 3 3 6 4 7 3 5 11 11 10 8 10 9 10 9 7 7 6 5 6 6 5 4 5 7 4 3 6 7 5 6 6 5 7 6 7 6 6 6 6 6 7 6 5 6 5 5 5 4 5 5 6 4 4 4 5 7 6 7 7 7 7 7 6 6 5 4 4 3 3 2 4 4 3 3 3
3 1 3 3 3 1 4 4 4 5 2 4 5 2 2 2 0 2 2 2 7 5 4 5 6 8 7 7 11 10 10 9 8 8 10 9 8 8 7 7 6 7 7 6 5 6 6 5 5 5 6 6 5 5 7 7 6 6 7 6 6 5 6 5 5 6 5 6 6 6 5 4 7 6 8 12 8 5 4 6 7 7 6 5 6 4 5 5 6 4 5 5 3 3 4 3 2
3 2 3 1 2 1 2 6 4 4 4 2 2 2 2 2 0 2 2 3 4 4 5 7 8 10 11 10 11 10 10 10 10 8 8 8 7 6 7 7 6 7 7 6 5 6 7 6 5 4 4 6 5 6 5 7 7 6 7 6 7 6 6 6 5 6 5 7 6 6 4 5 7 6 6 7 6 6 5 4 4 4 4 4 6 3 4 3 3 3 3 3 3 5 2 1 2
2 5 5 3 1 1 4 6 5 3 1 2 1 2 2 3 1 2 4 4 0 2 3 2 1 8 14 13 13 9 10 10 11 9 10 10 10 8 7 6 6 5 7 6 7 6 7 7 7 4 4 4 5 5 5 5 7 7 6 7 8 6 7 6 5 6 6 6 6 4 3 5 7 6 6 6 6 5 6 6 6 6 4 4 5 4 5 5 5 5 5 5 4 1 1 1 1
3 2 4 2 1 2 1 5 2 2 1 1 2 2 2 1 2 3 4 5 1 3 3 4 4 8 13 12 13 10 11 12 11 12 11 11 10 7 8 7 8 7 7 6 7 6 7 6 8 6 6 5 6 4 6 4 4 4 6 7 7 7 8 7 6 7 6 5 5 4 3 5 3 6 6 6 6 6 8 8 7 7 7 7 6 6 3 2 3 4 3 3 1 1 0 1 2
3 3 5 6 4 3 2 3 2 1 2 2 2 2 1 1 3 1 2 3 5 1 3 5 3 5 12 12 13 13 14 14 13 12 11 10 10 10 7 7 6 6 7 7 8 7 8 8 9 7 7 6 5 5 6 5 4 3 5 5 7 7 7 7 6 7 6 6 6 5 4 5 5 4 6 6 6 4 5 4 6 6 4 4 6 5 5 3 4 3 3 2 2 1 2 2 3
4 6 2 3 2 5 3 3 3 1 2 0 1 2 4 4 2 1 3 4 4 3 4 3 3 3 10 11 11 11 11 10 10 10 8 6 8 8 6 5 6 7 8 7 7 8 9 8 9 9 9 8 6 6 5 6 6 4 3 3 4 5 5 6 6 5 6 7 7 5 4 5 6 5 4 5 3 3 3 5 3 4 3 3 4 2 4 5 5 5 4 3 4 5 3 4 4
6 7 4 6 3 4 3 3 3 3 1 3 1 4 5 3 6 3 8 8 5 4 4 3 4 3 8 9 10 11 11 11 10 10 12 9 8 9 8 6 6 8 8 8 8 7 9 8 9 10 10 10 8 7 5 6 6 6 3 3 4 3 4 5 5 5 5 7 7 6 5 5 5 6 5 5 5 4 3 3 3 2 5 4 4 5 4 4 4 4 4 4 3 2 2 4 4
2 7 2 4 3 3 3 4 4 3 2 0 3 3 3 1 1 4 1 2 5 4 5 4 4 5 5 6 9 9 11 11 12 10 8 8 9 10 9 8 7 7 9 9 8 6 9 8 8 10 9 9 8 8 6 6 6 6 5 4 4 4 3 3 6 6 5 5 6 6 4 5 4 5 5 5 5 5 4 3 3 4 4 6 5 5 4 5 3 3 5 3 2 2 3 3 4
0 3 4 2 2 3 3 5 4 4 3 6 4 5 4 2 2 8 2 1 4 5 3 4 5 5 5 6 7 7 8 9 9 9 12 11 10 10 10 11 9 7 8 10 8 7 9 10 9 10 9 9 9 8 7 7 7 7 6 6 5 4 3 4 4 5 6 6 5 6 5 5 4 4 5 6 5 5 5 5 5 5 5 5 5 5 4 3 3 2 3 2 0 1 3 4 2
2 2 3 4 6 6 7 7 6 5 2 3 2 3 8 6 8 7 9 4 5 6 5 6 6 5 5 5 5 6 7 8 10 10 12 11 9 9 11 10 10 9 5 8 9 9 10 11 10 10 9 9 9 9 8 7 7 7 7 6 6 6 6 5 5 5 6 5 5 7 7 6 6 4 5 7 6 6 6 6 6 6 6 6 5 4 3 4 2 1 2 3 2 2 3 4 4
1 3 3 6 5 8 11 8 6 8 3 6 5 4 4 7 13 13 12 9 5 5 5 5 5 5 5 6 6 6 6 6 9 11 11 10 10 10 11 10 11 9 7 6 8 10 8 7 7 8 9 10 10 9 8 8 7 7 6 6 6 7 6 6 6 5 6 5 6 5 7 6 7 6 5 5 6 6 6 6 6 5 5 4 5 5 4 3 4 4 4 5 4 3 3 4 4
4 5 4 4 3 5 11 11 11 9 7 8 6 4 6 4 5 1 5 6 6 4 4 5 5 6 5 6 6 7 7 7 9 10 9 10 10 9 10 9 11 10 7 7 9 9 9 9 8 8 9 9 10 9 10 9 7 7 7 7 6 7 7 6 6 6 6 7 6 6 7 6 6 6 5 6 6 6 5 6 6 6 6 5 6 6 6 6 5 5 4 5 5 4 5 6 4
4 4 4 4 5 1 1 11 12 11 3 7 5 5 10 7 9 4 2 4 6 5 5 6 6 5 6 5 6 6 6 7 7 7 8 9 10 9 11 11 10 10 10 9 8 9 10 9 10 8 10 10 11 10 9 9 9 8 8 8 7 7 7 7 7 7 6 7 7 7 7 7 7 7 6 5 7 6 6 6 7 6 6 6 6 6 5 6 5 5 3 4 3 4 4 4 4
3 6 2 6 7 5 2 4 9 10 7 6 11 5 1 3 5 5 2 4 4 5 5 4 5 7 6 5 5 5 5 6 7 7 8 9 8 8 9 10 10 11 10 9 10 9 10 10 11 11 12 11 11 10 8 6 8 9 9 9 9 8 8 8 7 7 7 7 7 7 8 8 8 7 7 6 7 7 6 6 6 7 5 5 6 4 5 5 3 3 4 4 4 4 3 4 4
5 6 7 5 7 6 3 3 5 5 10 7 10 7 7 1 5 5 5 5 4 5 5 6 6 5 6 7 6 6 6 6 8 9 8 9 7 8 7 7 8 9 9 9 9 11 11 10 9 11 10 11 9 10 9 7 7 8 7 8 8 8 9 8 7 7 8 7 7 7 8 9 8 8 7 7 6 7 7 6 5 6 6 6 6 5 5 5 5 4 4 4 4 3 3 3 4
7 9 6 5 6 5 5 6 7 7 7 6 9 10 10 6 5 3 7 7 8 7 6 5 6 6 5 6 7 7 6 7 8 8 9 8 8 8 7 6 6 7 8 9 9 9 9 9 8 9 9 10 9 9 9 8 6 5 6 7 8 8 8 8 8 8 7 8 7 7 8 9 9 8 8 7 8 6 7 7 6 5 6 7 6 6 5 5 5 5 5 4 4 5 5 5 4
8 5 5 5 5 5 8 2 9 10 8 6 7 9 8 9 9 9 7 7 8 7 5 5 5 5 5 5 6 6 6 7 6 8 9 8 8 8 8 7 8 7 8 9 9 8 9 8 7 8 8 9 9 8 8 8 7 7 7 6 7 8 7 8 8 8 7 7 7 8 8 9 9 8 8 8 8 7 6 7 7 6 6 7 7 6 6 6 6 5 5 5 4 4 4 4 3
6 7 6 8 6 6 4 9 5 6 5 8 7 8 7 7 5 4 6 8 10 10 8 7 6 6 6 5 6 8 8 8 6 8 9 10 9 9 9 8 8 8 8 9 10 9 10 10 9 10 9 9 8 9 9 9 10 8 8 9 9 8 8 7 8 7 7 8 8 8 8 8 9 9 9 8 8 8 7 7 7 6 6 7 7 7 7 7 7 6 6 5 5 4 4 4 4
8 4 4 5 5 5 5 5 3 0 1 3 5 6 8 7 6 5 5 5 6 6 8 9 9 8 8 10 9 8 9 5 6 6 7 8 9 9 9 8 8 10 10 10 11 11 10 10 11 10 8 10 10 8 7 8 9 9 8 9 8 8 8 9 9 8 8 7 8 8 8 8 9 10 9 9 9 9 8 7 7 7 7 6 7 7 6 7 6 6 5 4 4 6 4 5 6
8 5 4 4 5 5 2 8 2 4 1 5 4 8 10 8 7 6 7 8 7 6 8 9 10 11 10 10 10 10 7 7 8 9 7 8 10 10 10 9 9 11 11 12 12 11 11 11 10 10 9 10 10 10 8 8 6 7 7 5 7 6 6 7 8 7 7 8 8 8 9 9 10 9 10 10 9 9 10 9 8 8 8 7 7 7 6 6 7 6 6 6 4 4 5 4 5
6 5 5 5 3 5 3 2 2 3 2 2 2 6 8 9 9 12 10 9 8 8 10 11 12 13 13 12 11 11 11 10 10 10 10 9 10 10 9 10 11 10 10 10 11 13 12 11 11 11 10 10 10 11 10 7 7 6 6 5 4 6 5 5 7 7 7 7 9 7 8 10 11 10 10 11 10 10 10 10 9 8 9 8 8 8 7 7 6 6 6 7 6 4 4 5 5
7 6 4 4 5 5 4 3 2 4 4 4 4 5 7 9 10 9 9 14 15 16 15 14 11 10 10 8 7 8 12 12 11 11 11 10 10 11 13 14 11 11 12 12 13 13 11 14 14 13 12 12 11 12 12 9 7 6 6 6 5 6 5 6 6 8 10 9 8 9 10 6 9 11 10 11 11 11 10 10 10 9 9 9 9 9 9 9 9 8 9 7 8 7 5 4 4
7 8 5 4 4 4 4 5 3 0 2 2 0 4 4 4 8 7 3 4 11 10 10 12 12 8 7 8 10 8 7 8 13 14 14 13 13 12 12 11 11 12 13 13 13 14 12 12 13 13 11 11 11 12 13 11 10 9 8 9 10 9 10 10 12 13 11 12 13 9 8 9 7 9 10 10 11 10 10 11 10 10 10 10 10 9 9 8 9 9 9 8 9 8 7 6 5
6 6 8 7 4 4 1 2 7 2 1 1 1 5 5 7 11 7 5 6 5 2 7 9 7 7 8 10 10 11 11 10 7 6 8 10 11 12 12 12 13 13 14 12 11 12 14 12 12 13 12 11 11 11 12 12 12 10 11 11 11 12 12 11 10 8 9 10 8 10 10 10 10 10 10 11 11 12 11 11 11 11 10 10 9 9 10 10 9 9 8 9 9 8 8 7 7
6 1 13 7 4 2 1 3 1 3 2 1 3 1 4 7 9 8 7 9 10 11 9 6 8 9 10 10 11 12 12 11 10 11 8 8 9 12 14 14 13 14 13 9 10 11 13 14 12 12 11 11 10 10 11 12 13 13 12 12 11 12 13 12 10 10 7 8 9 10 9 10 11 11 10 10 11 12 12 12 12 11 11 10 9 10 11 10 8 8 10 10 9 8 9 9 6
2 1 6 4 4 2 1 1 1 2 3 5 2 2 3 5 3 5 9 9 12 15 14 13 12 10 10 9 12 11 9 9 10 9 9 9 9 9 10 12 12 12 8 10 12 12 11 10 10 9 11 12 11 13 13 13 13 13 13 12 12 11 12 10 7 7 8 7 10 9 10 10 10 12 12 11 10 11 12 12 12 12 12 11 9 9 10 10 11 10 9 9 9 9 8 8 7
1 2 3 2 2 3 2 1 1 2 1 5 3 5 5 7 4 8 4 8 11 9 10 10 11 10 10 12 10 8 8 8 7 6 6 7 8 7 7 7 8 9 8 8 7 6 8 8 10 11 12 12 12 12 14 14 14 13 13 14 15 13 10 9 7 8 8 8 9 10 10 9 10 10 12 12 12 12 11 11 11 12 13 12 11 11 10 11 11 11 10 10 9 10 9 10 10
4 6 8 6 5 3 2 3 1 0 5 6 7 5 4 7 3 8 5 6 5 6 4 3 2 4 3 3 2 2 4 4 2 1 1 3 4 6 6 6 6 6 7 9 9 9 8 9 10 12 14 11 11 13 14 15 14 13 14 15 16 15 13 11 9 10 9 8 10 10 10 9 8 10 9 10 12 12 12 11 11 12 11 11 11 12 12 11 11 11 10 9 10 11 8 9 9
7 3 4 6 4 3 2 0 2 1 4 1 3 8 8 8 3 7 2 1 1 2 3 4 5 3 3 4 3 4 4 5 3 2 3 4 3 3 3 5 6 6 6 8 8 8 9 9 10 12 12 12 12 12 12 13 13 13 13 14 15 15 13 10 12 12 11 11 10 10 9 8 9 8 9 10 11 12 12 11 11 12 11 11 13 12 12 11 10 9 9 9 9 10 9 10 10
5 6 7 8 3 2 1 2 3 5 5 2 1 2 2 16 7 6 1 3 2 4 3 2 1 1 1 1 1 1 2 1 3 4 5 5 5 5 6 6 5 5 6 7 7 6 6 7 9 10 12 12 11 10 10 11 11 12 13 13 13 11 11 11 11 11 10 10 9 9 9 10 9 10 11 12 13 14 12 12 12 12 12 12 11 11 11 12 11 10 10 10 10 11 10 9 9
9 10 8 6 4 2 2 3 2 2 0 2 1 4 6 3 4 13 16 17 8 6 4 4 4 4 3 2 2 1 2 4 5 5 5 5 5 5 5 4 4 5 4 5 5 5 5 5 5 7 10 7 7 8 9 10 12 12 11 11 12 10 11 12 11 10 10 9 9 10 11 11 11 13 13 14 12 13 12 13 12 12 12 11 10 10 10 11 11 10 10 11 11 10 10 11 10
8 4 7 4 4 5 6 5 6 5 2 0 2 2 6 4 4 1 4 3 4 2 6 3 3 2 1 0 1 2 3 5 5 4 3 3 3 3 2 1 1 1 2 3 3 4 5 5 5 6 6 6 7 8 8 10 11 11 11 11 11 10 12 11 11 10 9 10 10 11 10 10 11 12 12 11 11 13 13 12 12 13 13 13 12 11 9 9 10 9 9 11 10 9 10 10 10
5 4 3 4 7 1 3 2 1 1 2 1 2 6 2 4 3 7 5 5 4 1 3 5 2 2 1 1 2 4 3 1 2 1 1 2 2 2 2 2 2 3 2 2 4 5 5 6 6 7 8 7 6 6 7 8 8 8 8 11 12 11 9 9 10 10 11 11 11 11 12 11 11 10 10 10 11 12 12 13 13 13 12 12 12 12 11 9 9 10 9 10 11 8 10 11 10
8 7 10 5 3 0 2 3 0 2 2 8 4 5 6 4 10 12 10 6 5 5 4 3 4 5 5 2 2 2 2 1 1 1 1 1 1 2 4 4 4 4 4 5 5 4 5 4 4 5 5 4 5 6 7 8 9 9 10 10 10 11 11 11 11 10 11 10 10 10 10 11 10 10 10 10 11 11 11 12 12 12 12 11 11 12 12 10 9 9 9 9 10 9 10 11 10
6 7 7 3 5 3 2 2 1 1 4 5 7 9 3 0 8 4 12 9 7 5 5 5 4 5 4 4 3 3 2 2 2 2 2 2 2 3 3 4 4 4 4 4 4 3 2 2 3 4 4 5 5 5 6 6 6 7 8 9 9 10 11 12 11 11 9 9 9 9 8 9 10 8 8 8 9 11 11 11 11 11 11 10 10 10 11 11 10 8 8 9 9 9 10 8 10
10 9 5 9 3 3 3 1 3 4 4 3 4 7 4 9 8 1 2 9 8 8 6 6 5 6 5 5 4 3 2 1 1 2 2 2 3 4 4 4 4 4 4 3 2 2 2 2 3 4 5 5 5 5 5 5 6 6 6 7 7 8 8 8 8 8 8 10 11 9 9 9 7 8 8 8 8 9 9 10 10 10 9 11 10 9 10 10 11 10 9 8 7 8 9 8 7
3 3 8 5 2 1 7 7 1 3 4 2 5 5 6 9 8 8 7 9 12 11 9 8 8 7 7 5 5 5 3 3 2 2 2 2 3 3 3 3 3 4 4 4 3 2 3 4 4 5 5 5 5 5 5 5 5 5 5 4 5 6 6 6 7 7 8 10 10 9 9 8 9 7 8 8 8 9 10 11 10 10 10 9 10 9 8 9 9 9 8 8 8 9 9 8 7
6 8 6 5 1 2 2 1 4 4 2 4 3 4 7 5 10 11 12 8 8 9 9 8 7 8 7 7 6 5 5 4 4 3 2 2 2 1 2 3 3 2 2 2 3 4 5 4 5 5 6 5 6 6 5 5 4 5 5 7 7 6 7 6 6 7 8 9 9 9 9 8 6 8 7 8 8 10 10 10 10 10 10 9 10 9 9 9 9 9 8 9 9 10 11 8 9
12 13 12 13 10 5 10 7 2 2 2 4 3 10 3 2 2 9 9 6 6 7 11 10 9 10 10 8 6 6 5 5 5 4 3 3 2 1 1 2 2 3 3 4 4 4 4 4 4 4 4 5 5 5 5 5 5 4 5 5 6 5 5 5 6 6 7 7 6 7 7 5 6 6 7 7 7 7 7 8 9 9 9 9 9 10 10 10 10 10 9 8 10 10 9 9 9
Wind_Direction
300 283 251 242 263 278 299 261 290 210 184 188 94 66 77 49 110 117 83 158 94 14 51 69 61 55 31 35 72 74 35 45 27 302 103 153 205 122 107 116 126 112 113 119 128 137 122 109 112 110 113 114 110 101 106 109 107 106 101 97 95 89 85 84 90 91 93 94 90 84 80 78 80 83 84 84 86 85 83 81 78 77 79 79 78 77 77 78 79 76 73 69 68 66 65 66 66
289 291 287 264 244 339 282 264 237 280 203 73 52 91 99 98 237 113 172 77 68 87 48 66 59 52 247 74 132 120 51 59 60 81 98 133 117 98 117 125 125 119 121 134 139 131 114 106 115 118 116 118 112 108 111 109 106 106 101 98 98 100 103 104 101 94 95 94 85 84 86 87 88 88 86 85 84 81 81 82 81 81 82 81 79 80 81 81 79 76 73 71 70 68 67 66 67
301 310 304 303 241 178 269 255 269 291 264 100 85 84 161 151 114 78 75 85 91 91 75 68 81 2 337 185 50 56 99 92 92 95 99 139 113 127 140 133 118 125 130 131 126 119 116 102 112 119 115 121 117 115 112 112 108 102 106 111 107 104 98 100 101 107 102 98 101 95 92 94 93 91 89 93 89 84 81 77 77 81 81 82 82 82 86 85 81 76 74 72 71 70 68 67 67
284 274 275 316 311 259 251 255 233 281 347 96 80 75 111 97 81 85 75 85 106 117 118 139 149 4 6 50 95 93 96 81 104 125 131 178 112 137 128 121 133 126 117 124 129 110 102 120 120 118 114 121 124 122 114 114 116 112 103 101 100 105 106 103 107 104 98 99 98 98 95 91 82 72 76 71 81 93 90 85 82 80 84 83 83 84 79 80 79 76 73 72 70 69 68 67 66
270 260 258 287 326 297 341 280 280 15 28 355 102 135 68 89 100 90 88 88 97 128 189 126 89 25 74 50 12 67 92 106 114 126 126 96 121 125 118 127 127 126 130 134 112 108 108 116 122 121 120 119 122 122 117 108 104 108 114 111 109 94 65 88 107 100 100 96 93 88 86 84 79 80 82 83 82 84 90 86 85 83 85 86 85 84 83 81 80 76 73 70 69 68 66 65 64
252 255 243 235 249 59 294 306 284 71 30 11 73 65 120 95 103 108 105 87 60 57 356 228 41 163 82 46 14 96 221 135 132 103 114 132 117 125 130 124 143 146 112 103 107 111 112 120 128 127 129 128 129 125 115 115 115 111 110 106 110 91 81 75 90 96 96 95 95 93 90 89 86 85 85 88 90 86 83 85 86 89 87 84 84 83 83 81 78 74 71 69 68 68 65 64 63
306 347 259 181 258 139 256 251 317 85 19 15 39 98 83 93 102 118 114 103 94 65 352 297 108 130 111 117 82 56 30 38 154 131 122 115 124 129 146 136 152 121 114 108 104 107 104 106 131 131 135 132 125 121 121 119 118 114 110 107 96 92 94 92 92 99 100 98 100 99 99 97 88 90 94 95 90 86 85 87 87 84 83 84 82 80 78 77 74 73 70 69 67 67 67 65 62
260 272 346 343 301 222 251 278 30 88 40 45 36 42 64 108 123 125 143 162 149 166 219 7 19 326 85 187 101 73 74 66 96 101 112 122 125 147 139 141 127 123 115 110 109 108 95 97 129 135 132 125 123 121 120 122 122 115 112 102 98 101 104 102 102 105 106 104 102 101 99 98 96 95 94 91 88 86 89 89 89 84 83 80 79 78 78 77 75 74 72 70 68 67 67 65 63
242 194 250 332 249 231 272 253 101 102 123 103 82 59 333 111 142 126 143 71 143 112 170 171 117 268 142 91 87 110 73 106 95 101 111 117 140 151 132 131 136 111 98 105 113 114 97 101 126 128 119 127 126 117 112 111 114 114 109 108 108 109 111 106 104 104 103 106 103 102 102 101 102 99 94 92 89 91 92 92 89 86 83 81 80 78 76 75 78 76 73 71 69 67 66 66 63
299 161 299 281 335 295 243 163 74 70 93 53 84 109 70 124 130 151 113 153 108 137 105 138 83 305 140 102 120 132 147 98 108 109 117 124 143 152 127 129 121 114 110 119 123 116 105 102 102 97 105 113 116 121 114 114 107 106 116 116 119 122 121 116 115 108 105 105 105 107 109 107 101 100 98 93 92 94 96 92 89 85 82 81 79 79 80 81 80 79 76 74 70 68 66 65 63
318 238 163 320 275 256 311 84 116 187 106 113 87 78 105 39 161 142 146 91 155 115 96 70 182 242 318 85 74 35 103 108 129 124 129 135 152 138 120 121 124 122 124 130 124 121 118 106 103 99 101 104 100 112 117 116 119 117 117 121 124 129 120 116 114 108 109 108 109 112 112 111 107 103 101 100 97 94 96 96 93 91 86 84 84 81 82 81 80 78 76 73 71 69 67 64 62
281 296 100 240 263 290 81 10 68 116 126 109 81 103 32 142 323 160 123 126 162 127 144 194 8 146 205 127 122 152 123 142 132 124 126 129 156 124 111 113 123 109 121 122 123 129 124 126 110 110 108 99 97 111 114 112 121 123 122 128 133 121 113 114 112 114 114 114 115 115 111 108 92 77 81 103 100 103 102 102 100 94 94 93 92 93 92 89 87 83 80 76 73 71 69 65 62
234 327 303 277 275 295 50 320 106 42 106 51 116 47 297 140 208 155 121 115 136 139 145 189 108 7 264 82 140 135 145 179 131 125 124 146 123 100 112 128 121 122 122 130 140 142 135 141 132 122 117 104 100 104 101 96 96 115 126 104 93 114 112 113 117 119 114 111 100 91 87 88 85 82 77 74 92 100 91 92 100 101 95 94 92 93 93 90 87 87 86 82 79 75 71 67 62
74 37 16 289 316 270 302 353 74 170 52 123 26 150 196 146 226 18 117 154 124 76 61 97 319 246 110 109 147 155 157 181 125 124 147 130 107 119 117 128 110 113 122 146 140 134 149 149 145 138 137 121 110 105 110 112 104 90 97 98 100 111 115 113 107 104 102 103 99 93 89 87 85 82 74 74 83 86 83 81 92 100 96 92 92 92 94 94 95 93 91 89 84 80 76 71 63
30 352 328 269 291 330 223 270 39 68 119 75 341 153 151 56 9 34 32 52 63 98 58 60 5 77 64 199 165 172 162 160 133 125 144 118 127 123 120 117 114 116 156 189 131 144 168 150 147 144 156 143 136 127 121 119 118 110 103 105 107 112 112 112 112 108 106 106 107 106 94 93 88 85 79 80 80 92 92 89 91 99 102 98 99 96 95 95 96 95 96 95 90 84 82 76 66
63 58 329 291 279 307 234 209 71 104 104 71 354 341 134 78 35 340 53 11 92 33 245 75 15 18 13 52 132 144 152 132 135 122 127 120 129 105 111 133 127 140 189 204 138 173 159 141 141 159 167 150 163 143 138 129 125 123 115 112 116 118 118 116 115 112 112 111 114 114 110 101 96 94 94 82 82 82 88 96 103 105 107 106 101 97 92 94 98 101 102 105 104 102 95 86 75
150 74 255 243 290 260 178 235 148 59 124 93 192 187 163 127 116 30 187 246 158 150 181 84 103 37 51 63 109 131 137 127 130 128 135 127 124 132 138 154 133 154 174 206 138 176 159 143 152 168 169 155 175 145 137 134 133 124 120 119 125 125 126 125 120 117 116 122 125 132 133 131 121 122 110 101 84 79 87 96 98 94 106 105 96 94 93 90 96 101 107 111 129 136 129 139 140
213 205 220 247 249 257 355 35 21 140 94 109 96 172 243 136 169 111 53 177 258 121 198 98 70 68 82 100 116 122 126 132 142 145 157 144 155 146 165 169 145 160 171 211 154 168 160 173 152 178 165 155 171 145 138 138 149 143 136 134 129 130 130 131 133 137 136 146 153 159 173 162 152 170 134 124 112 99 83 91 94 96 92 93 99 95 95 93 93 103 114 136 155 167 165 161 189
193 252 218 230 185 316 307 40 25 56 78 94 89 22 312 73 159 138 187 202 194 168 195 140 144 109 90 114 120 130 134 146 154 162 161 162 169 164 171 174 163 152 180 196 173 157 171 195 167 172 152 163 153 141 133 142 159 158 151 154 143 151 153 155 155 150 154 159 184 186 212 194 162 141 129 115 115 98 104 99 99 99 104 107 114 111 113 123 131 139 150 195 213 206 196 238 212
226 286 234 235 133 132 36 49 59 43 6 80 85 69 321 78 314 110 243 252 171 205 185 174 177 153 146 140 142 141 152 158 167 173 168 171 177 167 177 170 180 160 172 181 178 156 174 181 188 167 160 165 147 144 137 153 169 176 157 162 155 158 169 184 174 167 174 170 193 199 211 195 113 116 119 118 122 121 112 113 122 125 129 129 133 147 162 176 177 189 204 211 254 269 252 233 188
137 185 223 255 31 90 65 68 61 47 18 65 71 95 257 131 13 166 205 246 257 214 203 170 192 167 158 159 151 155 160 167 172 183 178 177 188 176 177 173 187 162 168 167 169 168 175 174 177 173 159 158 154 147 166 165 169 175 166 166 163 168 173 198 188 177 178 178 203 207 211 152 129 132 135 141 162 151 148 155 161 170 170 167 172 180 201 192 185 198 241 232 245 249 237 8 10
121 225 226 258 163 69 80 81 45 30 335 331 196 250 74 10 340 255 269 245 319 36 35 42 120 157 151 163 157 162 164 175 177 188 188 182 188 186 179 164 175 166 154 166 169 179 173 175 163 176 167 163 169 157 170 183 163 178 167 172 167 172 170 192 185 180 182 177 208 209 157 134 132 147 152 169 182 168 166 169 187 190 179 184 186 210 204 184 201 197 209 213 231 185 95 52 24
236 203 234 133 81 83 46 83 51 326 312 263 286 55 315 266 304 217 224 249 221 110 55 34 30 126 156 157 148 166 170 179 183 193 190 186 188 194 192 170 170 170 160 170 163 180 177 179 164 165 169 177 179 172 166 169 170 191 172 172 168 180 169 181 193 177 180 173 208 204 167 151 161 153 167 180 199 177 177 177 189 193 178 167 192 210 210 178 211 199 176 197 221 100 210 167 230
239 233 184 196 164 146 122 100 99 93 312 348 58 318 282 289 255 18 277 229 261 326 127 105 77 101 143 155 163 174 177 178 190 191 195 190 187 195 196 179 172 159 156 175 168 174 181 181 163 162 170 182 179 184 168 160 174 219 198 171 170 179 169 176 189 179 173 173 195 216 184 159 176 201 176 180 205 166 176 189 169 145 158 192 184 203 158 202 231 240 184 175 134 200 210 224 238
217 246 276 80 120 107 149 140 158 170 208 297 120 248 255 232 245 57 245 266 287 273 124 126 119 146 157 159 171 176 176 183 188 187 187 197 194 196 204 196 172 162 162 178 173 167 181 180 165 167 169 181 178 190 173 161 165 209 200 178 187 174 176 176 185 180 172 168 184 211 185 162 179 204 174 179 187 190 199 175 144 150 157 213 163 210 178 199 204 209 182 183 181 219 205 212 209
204 242 212 140 186 161 144 168 177 181 251 182 251 252 248 225 101 263 249 241 227 256 119 140 151 192 170 169 177 174 180 187 183 184 189 191 193 194 200 205 189 176 170 175 174 173 174 179 174 176 171 178 173 183 186 159 163 182 203 197 195 192 185 180 183 186 185 166 176 199 187 182 185 189 173 173 180 190 199 156 140 184 175 207 164 204 201 208 213 200 192 192 183 196 232 231 166
317 217 246 140 201 167 157 208 182 177 248 210 240 275 282 58 248 263 237 211 200 187 154 159 174 199 188 178 179 183 180 184 186 181 182 190 193 194 195 205 206 188 168 177 176 173 168 179 181 181 173 173 169 179 178 173 165 173 191 190 191 199 212 191 187 187 186 176 175 184 179 186 205 178 171 174 177 170 187 159 170 206 184 210 178 201 201 200 222 190 184 183 201 225 232 223 193
326 343 98 231 246 194 198 206 217 146 221 211 239 270 294 238 159 228 214 180 121 137 186 184 194 203 202 197 182 186 189 184 176 176 189 189 195 190 193 197 203 195 179 178 174 173 168 182 181 182 177 171 167 178 174 179 177 177 180 177 186 188 204 220 211 190 185 184 182 177 182 188 216 195 167 174 176 175 185 177 189 199 200 208 178 198 173 190 220 208 126 94 299 322 313 323 332
134 191 230 209 214 226 212 216 202 175 232 151 105 318 268 239 239 215 236 194 180 176 189 193 193 205 201 199 189 181 196 180 174 184 194 195 191 190 197 196 195 197 195 176 172 174 176 179 181 183 179 172 174 178 177 182 179 175 172 178 177 178 193 204 218 211 189 188 186 173 177 183 205 201 184 177 175 180 184 185 190 194 193 193 183 178 163 178 214 278 146 157 210 224 244 274 283
226 199 250 270 214 229 217 204 201 180 187 147 105 267 228 229 232 223 215 210 186 200 211 197 191 199 207 192 192 184 191 190 187 192 191 188 188 192 199 195 193 194 190 179 173 181 174 178 181 180 184 175 180 178 174 180 181 172 169 175 179 174 185 189 212 214 194 194 185 173 176 181 190 208 186 180 179 186 189 181 186 189 190 197 173 154 171 205 196 204 206 163 199 217 235 241 235
188 208 208 226 236 255 204 191 182 199 149 153 134 247 257 277 334 345 195 201 174 207 218 217 194 196 202 199 189 190 192 198 202 196 193 188 187 191 196 195 193 187 179 188 188 178 174 176 178 183 184 179 182 183 177 178 176 168 171 178 185 176 179 187 205 212 198 197 181 179 175 182 189 196 198 177 183 194 190 181 186 191 187 193 182 169 175 200 208 208 194 178 194 204 222 237 220
234 176 217 219 220 302 86 163 172 189 139 167 148 247 257 241 250 247 160 166 161 219 227 221 207 198 196 193 193 192 196 195 209 204 197 195 190 192 193 197 190 186 188 189 185 176 180 175 179 184 184 183 184 188 184 177 178 173 174 179 185 177 179 187 194 203 200 196 186 179 178 184 191 192 198 181 180 195 195 188 192 193 187 184 186 177 179 194 200 211 207 174 196 239 236 256 243
229 225 219 191 195 202 172 188 172 186 130 185 180 236 203 258 230 244 235 150 194 210 224 242 228 202 192 190 194 197 194 197 201 208 199 197 200 196 194 194 191 190 190 185 186 184 186 182 175 184 184 188 180 189 192 183 179 180 178 179 183 179 181 188 191 192 200 195 196 182 181 183 191 193 192 189 176 191 201 199 196 185 187 173 172 179 178 192 207 199 212 203 197 226 231 254 275
201 201 238 235 194 194 225 126 202 161 143 179 213 236 246 233 169 206 158 183 205 220 228 235 249 247 193 186 188 197 201 198 199 199 208 195 198 199 195 194 193 188 190 189 190 190 190 188 182 185 181 188 181 185 192 191 186 183 182 180 185 184 188 187 188 189 198 198 192 191 178 184 190 192 192 189 187 188 194 199 204 183 180 171 168 184 191 184 204 203 209 218 213 208 231 247 255
190 196 217 248 272 223 176 162 186 164 199 197 198 230 251 249 260 206 189 202 206 215 213 224 227 229 233 187 184 193 201 203 206 193 198 202 191 193 192 182 191 186 188 193 193 191 191 193 189 188 178 181 186 180 187 195 195 191 184 182 190 195 190 190 187 194 195 194 194 189 179 182 188 190 192 187 189 193 190 195 203 192 173 169 174 184 192 198 199 200 201 222 218 207 206 219 224
222 193 203 238 241 221 235 122 148 176 184 223 207 224 228 238 237 233 230 198 208 214 210 218 219 219 237 201 186 198 209 215 204 190 191 194 192 182 184 181 184 185 185 191 197 191 190 196 196 191 190 179 183 184 180 191 194 197 193 193 196 202 195 191 197 196 193 196 193 187 186 180 183 187 188 190 189 192 193 195 198 197 181 172 179 184 196 198 202 209 213 205 226 246 224 214 229
229 212 196 223 227 255 225 128 190 196 167 207 221 240 244 257 256 243 222 214 219 225 221 217 212 212 219 224 197 200 206 215 209 196 186 188 188 181 179 180 180 182 185 186 196 199 191 194 194 199 191 189 189 191 187 186 193 196 206 204 203 194 198 195 200 201 196 196 195 193 189 183 179 183 187 188 192 191 193 194 197 202 193 182 181 193 192 197 201 202 203 190 205 227 250 221 221
257 258 218 225 234 247 269 136 160 86 198 233 216 244 250 250 253 246 251 255 239 209 215 219 223 216 208 210 216 206 206 205 199 208 197 184 184 181 178 184 178 183 193 189 196 198 196 193 197 199 182 192 200 204 201 194 193 199 200 207 199 193 192 198 203 202 201 196 196 196 191 184 178 182 186 188 191 193 193 194 196 199 196 194 191 192 196 196 200 198 180 198 197 203 228 206 214
243 234 213 233 232 240 41 116 138 120 80 265 261 268 269 260 256 253 239 239 239 228 218 215 212 221 222 214 212 214 206 200 197 200 193 187 186 183 182 187 191 191 187 194 195 194 198 198 200 194 189 190 199 201 205 210 199 199 202 209 203 209 208 200 203 199 191 199 205 198 190 185 185 185 184 187 191 195 196 195 196 192 197 190 187 195 196 201 199 194 185 184 207 213 218 217 175
237 219 227 222 210 190 201 15 130 176 182 300 319 305 290 285 270 262 256 254 250 236 233 227 210 213 215 216 207 206 207 199 196 195 198 196 187 186 186 191 195 187 189 196 195 195 197 201 198 192 195 189 192 199 204 206 201 200 206 208 211 210 205 198 201 201 200 202 216 211 205 194 190 191 187 189 193 194 195 198 193 192 194 190 189 192 198 206 199 197 194 198 184 213 207 232 176
233 240 212 232 224 213 240 151 251 153 225 218 306 291 267 257 257 249 235 224 230 231 234 241 231 218 213 219 225 205 203 200 200 200 202 197 191 192 193 196 188 190 196 197 196 196 199 200 199 195 195 192 189 193 197 199 192 198 197 206 215 219 231 204 194 212 209 209 212 216 217 200 195 194 191 191 193 195 195 196 197 196 193 193 191 194 197 203 201 198 193 189 192 198 212 202 218
225 226 223 235 262 272 203 155 167 328 314 115 198 338 283 231 237 249 270 208 224 234 230 231 232 221 205 217 226 234 231 209 200 202 201 198 195 197 198 194 191 199 202 203 197 198 198 200 198 198 197 197 194 189 190 189 198 199 194 197 205 209 213 210 209 206 200 204 210 210 216 215 207 199 196 195 194 195 197 197 198 198 197 196 195 196 198 196 200 197 196 194 199 200 194 196 205
220 213 195 240 281 317 311 210 79 293 214 215 252 180 273 338 310 288 298 316 298 290 205 226 222 215 203 212 219 226 229 233 231 217 202 197 199 194 198 196 198 201 208 202 195 200 202 200 198 196 197 199 197 193 181 183 195 202 205 207 209 210 213 220 218 208 201 206 202 203 211 214 216 209 204 200 196 195 197 199 199 200 200 199 191 191 197 199 196 199 197 198 200 191 189 205 183
229 316 176 197 211 237 8 4 139 261 347 158 205 146 248 279 255 266 296 281 266 265 256 232 221 217 211 210 214 222 225 226 223 224 214 203 196 192 197 200 200 206 207 189 198 202 202 203 196 195 196 198 198 191 185 184 194 199 206 212 212 216 218 223 211 213 203 189 200 204 202 209 213 218 217 211 204 195 198 202 202 202 204 204 193 195 197 195 195 200 198 197 193 189 189 198 189
189 296 119 173 193 195 217 92 282 277 58 293 186 194 284 234 268 220 221 245 251 250 247 246 238 220 214 215 220 222 224 224 221 222 220 213 209 207 201 201 205 207 195 193 200 202 201 201 199 197 199 200 200 191 192 189 193 196 203 210 218 223 224 226 216 204 205 192 198 199 203 205 207 214 218 222 215 204 200 204 202 204 206 208 202 201 198 192 195 195 193 190 192 191 188 190 185
270 241 109 133 143 36 17 94 73 358 57 249 182 186 242 272 242 276 211 223 240 232 229 228 228 214 201 211 218 216 214 218 220 219 215 214 216 221 216 205 199 200 193 193 198 193 198 197 199 200 206 204 200 196 196 197 194 193 201 208 217 223 220 224 209 210 206 196 204 201 202 202 204 207 211 214 217 214 206 206 207 207 208 208 207 208 199 195 195 197 195 193 189 193 189 184 195
146 101 84 73 61 63 37 64 48 8 253 242 201 223 180 298 221 216 214 223 222 210 229 227 115 101 102 135 168 210 180 164 161 180 188 191 195 198 203 207 200 189 183 182 189 193 192 195 200 203 210 207 202 203 200 203 200 197 204 207 213 219 218 216 215 221 213 204 208 205 202 205 200 206 204 211 213 212 212 208 211 214 212 209 207 206 205 198 194 192 191 189 190 188 185 184 187
131 127 126 89 35 82 81 254 106 201 251 16 229 196 183 217 268 253 221 284 21 79 140 122 128 112 73 39 49 76 95 126 148 168 234 236 247 242 190 204 207 191 176 185 192 191 192 196 197 205 211 209 208 207 204 206 206 206 210 211 214 217 214 213 214 218 213 214 210 208 203 201 207 202 201 209 213 211 212 213 211 214 214 211 210 206 205 201 193 188 188 189 190 188 185 187 188
125 137 147 122 173 98 270 154 216 205 245 241 302 154 237 237 227 276 224 232 186 203 191 188 147 75 35 20 131 134 128 133 169 211 220 218 210 214 211 219 216 207 195 198 199 196 199 200 201 206 215 213 211 205 206 210 208 212 213 216 221 220 220 221 220 221 214 215 211 209 202 208 203 205 207 209 211 209 210 214 213 213 214 213 211 207 205 199 197 195 195 193 186 184 184 188 193
165 173 164 152 147 156 215 189 217 295 199 314 42 31 268 299 273 226 252 263 234 207 202 134 145 166 193 210 246 195 194 194 207 214 215 213 214 224 222 219 219 226 223 210 205 199 202 208 214 213 225 219 214 211 209 210 214 217 215 214 217 217 222 223 224 222 217 216 212 213 209 210 206 210 208 212 206 206 210 213 213 218 219 217 213 209 201 197 195 198 195 194 191 188 180 189 198
179 168 180 187 169 163 192 175 196 201 175 198 223 100 235 117 255 305 249 260 340 190 156 169 160 150 155 100 319 300 283 264 235 221 219 221 227 214 220 217 208 192 207 212 196 190 188 209 214 223 232 226 216 215 214 215 217 218 219 218 217 212 218 219 222 219 213 212 213 216 215 209 210 211 211 211 200 206 209 209 212 215 217 217 213 212 205 198 197 196 194 195 191 185 187 187 197
200 177 164 216 224 147 144 200 123 139 115 218 253 209 238 210 307 288 244 250 244 241 187 138 163 167 146 174 230 244 234 131 134 159 210 228 201 194 187 189 195 200 213 205 197 189 189 200 201 213 220 225 224 226 226 225 227 226 224 224 225 224 220 220 224 219 221 215 215 215 219 216 214 209 208 203 204 201 206 210 212 215 214 213 211 211 208 202 195 194 192 190 191 185 189 192 194
189 175 206 204 327 89 131 22 160 92 30 254 173 292 286 271 277 262 269 243 238 207 194 194 198 173 162 189 150 140 129 149 160 176 211 216 199 207 197 197 199 198 200 207 212 206 205 211 215 230 240 243 233 228 226 220 222 220 224 223 225 226 226 226 226 225 222 221 220 218 218 218 215 207 206 200 200 202 204 208 213 214 213 211 206 204 205 202 198 194 190 189 190 187 190 193 188
134 196 206 102 56 61 103 179 73 144 218 267 151 224 255 196 287 229 211 218 227 206 204 188 178 149 143 153 151 162 160 175 191 190 197 202 210 216 214 201 196 198 199 201 211 219 215 218 224 234 250 243 249 241 237 233 229 233 232 231 228 225 227 229 229 229 224 221 223 224 220 218 216 207 200 194 194 196 200 199 209 211 211 210 209 201 202 200 197 199 193 193 189 180 188 188 186
183 182 149 140 227 242 238 101 224 173 219 269 238 212 232 194 230 22 195 197 217 216 199 155 167 148 146 159 168 177 186 148 156 182 193 214 213 217 208 205 208 195 192 187 192 179 184 214 235 230 232 234 234 237 239 243 233 227 226 229 229 233 231 229 228 228 224 227 229 227 226 226 217 202 198 187 185 190 194 197 204 210 205 207 205 199 194 194 192 195 192 189 180 176 179 182 179
342 127 183 223 64 226 161 194 170 111 231 209 286 161 253 197 224 211 231 193 199 209 198 174 169 155 160 174 179 182 175 176 190 193 207 214 218 207 195 185 184 187 185 191 187 190 205 210 211 228 242 250 260 255 244 243 248 250 256 256 248 240 239 234 231 226 227 230 231 227 228 224 219 199 198 187 186 188 190 195 200 204 206 204 203 199 190 187 186 188 181 181 178 175 176 173 168
178 177 190 200 197 250 96 235 172 169 188 199 263 280 258 243 202 202 213 190 196 184 167 150 162 155 169 174 180 185 185 190 200 210 222 226 240 231 189 175 174 160 163 172 190 207 215 212 215 217 216 231 237 243 246 247 248 250 248 246 246 246 247 245 244 235 235 234 232 230 229 225 206 207 188 187 186 190 190 191 191 197 200 199 198 194 190 188 188 187 184 179 175 180 175 171 160
187 179 188 184 160 123 170 225 157 222 153 224 213 254 263 300 149 192 203 185 172 155 141 157 170 167 172 176 181 179 184 201 198 213 218 234 249 259 187 161 174 170 200 204 211 209 223 227 224 219 221 226 228 236 227 240 244 248 248 248 252 250 251 251 250 250 248 247 243 234 230 219 213 208 192 191 186 181 181 184 190 193 196 197 197 195 189 187 185 183 180 174 175 175 170 160 158